Regional Weather Roundup
Issued by NWS

Home | Current Version | Previous Version | Text Only | Print | Product List | Glossary On
Versions: 1 2 3 4 5 6 7 8 9 10 11 12 13 14 15 16 17 18 19 20 21 22 23 24 25 26 27 28 29 30 31 32 33 34 35 36 37 38 39 40 41 42 43 44 45 46 47 48 49 50
000
ASUS43 KLOT 261712
RWRIL

ILLINOIS REGIONAL WEATHER ROUNDUP
NATIONAL WEATHER SERVICE CHICAGO/ROMEOVILLE IL
1200 PM CDT THU MAR 26 2015

NOTE: "FAIR" INDICATES FEW OR NO CLOUDS BELOW 12,000 FEET WITH NO
SIGNIFICANT WEATHER AND/OR OBSTRUCTIONS TO VISIBILITY.

* THESE STATIONS ARE NOT UNDER NWS QUALITY CONTROL. THEY ALSO MAY NOT
  REPORT WEATHER SUCH AS PRECIPITATION OR FOG.

ILZ001-002-007-009-015-016-024-261800-
NORTHWEST ILLINOIS

CITY           SKY/WX    TMP DP  RH WIND       PRES   REMARKS
MOLINE         SUNNY     41  24  51 NW15G25   30.05F
STERLING*      CLOUDY    41  27  56 NW10G20   30.03F
SAVANNA*       MOSUNNY   40  22  48 NW13G20   30.04S
$$

ILZ003-004-008-010-011-017-018-261800-
NORTH CENTRAL ILLINOIS

CITY           SKY/WX    TMP DP  RH WIND       PRES   REMARKS
ROCKFORD       PTSUNNY   37  22  54 NW12      30.02F WCI  29
FREEPORT*      CLOUDY    37  24  59 NW14G22   30.03F WCI  28
ROCHELLE*      CLOUDY    38  27  65 NW10      30.01S WCI  30
DE KALB*       CLOUDY    36  24  62 NW12      29.99F WCI  28
PERU*          PTSUNNY   40  28  60 NW16G22   30.02F
$$

ILZ005-006-012>014-019>023-261800-
NORTHEAST ILLINOIS

CITY           SKY/WX    TMP DP  RH WIND       PRES   REMARKS
CHICAGO-OHARE  PTSUNNY   40  26  57 W9        29.96F
CHICAGO-MIDWAY PTSUNNY   42  27  55 N5G21     29.97F
AURORA         PTSUNNY   41  27  57 NW15      29.99F
LANSING*       PTSUNNY   41  24  50 NW12      29.97F
JOLIET*        PTSUNNY   43  27  53 NW7       29.99S
WAUKEGAN       CLOUDY    39  22  50 NW9       29.95F WCI  33
DUPAGE AIRPORT PTSUNNY   40  24  53 NW12G20   29.97F
KANKAKEE*      MOSUNNY   41  31  66 NW9       29.99F
WHEELING       PTSUNNY   40  24  53 NW10      29.98F
MORRIS*        PTSUNNY   41  28  60 NW14      29.98F
ROMEOVILLE*    PTSUNNY   41  24  52 NW8       29.98F
NORTHERLY ISL    N/A     38  27  65 NE9         N/A  WCI  31
$$

LMZ740>746-261800-
SOUTHERN LAKE MICHIGAN

STATION/POSITION SKY/WX   TEMP    WIND        PRES    VSBY  WAVE
                          AIR SEA DIR/SP/G                  HT/PER
                          (F)     (DEG/KT/KT) (MB)    (MI)  (FT/S)
HARRISON CRIB              36     360/  8/  9   N/A
BURNHAM HARBOR             38      30/  8/ 10   N/A
CALUMET HARBOR             38     280/  8/ 10 1014.1F
BURNS HARBOR               36     320/  9/ 10 1015.9S
MICHIGAN CITY              35     280/ 12/ 14   N/A
$$

ILZ025>027-034>036-040-047-049-050-058-095>099-261800-
WEST-CENTRAL ILLINOIS

CITY           SKY/WX    TMP DP  RH WIND       PRES   REMARKS
QUINCY         MOSUNNY   43  25  49 N14G24    30.09F
GALESBURG*     SUNNY     41  26  56 NW15G26   30.06S
MACOMB*        MOSUNNY   42  27  56 N15G23    30.09F
JACKSONVILLE*  PTSUNNY   42  29  61 NW14      30.06F
PITTSFIELD*    PTSUNNY   42  27  56 NW15G23   30.09F
$$

ILZ028>032-037-038-041>044-048-051>054-059>061-261800-
CENTRAL ILLINOIS

CITY           SKY/WX    TMP DP  RH WIND       PRES   REMARKS
PONTIAC        PTSUNNY   42  31  65 NW10G16   30.01S
BLOOMINGTON    MOSUNNY   42  31  65 NW14      30.02F
DECATUR        PTSUNNY   41  31  67 NW13      30.03F
PEORIA         MOSUNNY   43  25  49 NW10      30.04F
LACON*         MOSUNNY   42  26  55 NW13      30.03S
LINCOLN*       MOSUNNY   43  29  59 NW8G16    30.05S
SPRINGFIELD    MOSUNNY   42  29  59 NW16G22   30.05F
TAYLORVILLE    PTSUNNY   37  32  81 NW15      30.04F WCI  28
$$

ILZ033-039-045-046-055>057-062-063-261800-
EAST-CENTRAL ILLINOIS

CITY           SKY/WX    TMP DP  RH WIND       PRES   REMARKS
CHAMPAIGN      MOSUNNY   40  30  67 NW13      30.00F
DANVILLE*      CLOUDY    39  32  77 NW13      29.96F WCI  31
RANTOUL*       PTSUNNY   42  33  69 NW12G17   29.99F
MATTOON        CLOUDY    40  32  73 N14       30.01S
PARIS*         CLOUDY    40  34  81 NW12      30.00F
$$

ILZ079-100>102-261800-
SOUTHWEST ILLINOIS

CITY           SKY/WX    TMP DP  RH WIND       PRES   REMARKS
ALTON          CLOUDY    41  32  70 NW12G18   30.08S
BELLEVILLE     PTSUNNY   41  33  73 NW12      30.07R
CAHOKIA*       PTSUNNY   42  32  67 NW13      30.09R
SPARTA*        CLOUDY    39  32  77 N8        30.08R WCI  33
$$

ILZ064>066-069>071-074>076-080>082-084>086-088>090-092>094-261800-
SOUTH-CENTRAL ILLINOIS

CITY           SKY/WX    TMP DP  RH WIND       PRES   REMARKS
CARBONDALE     CLOUDY    40  35  83 N17       30.05R
CAIRO*         RAIN      42  38  86 N16G23    30.02R
EFFINGHAM*     CLOUDY    40  31  70 NW14      30.03F
MARION         RAIN      41  37  87 N17       30.05R
MT. VERNON     CLOUDY    39  30  70 NW6       30.04S WCI  35
CENTRALIA*     CLOUDY    38  32  77 N9        30.04S WCI  32
SALEM*         CLOUDY    41  34  75 NW12      30.05R
METROPOLIS*    LGT RAIN  44  44 100 N12       30.00R
$$

ILZ067-068-072-073-078-083-087-091-261800-
SOUTHEAST ILLINOIS

CITY           SKY/WX    TMP DP  RH WIND       PRES   REMARKS
LAWRENCEVILLE  CLOUDY    41  35  79 N18       29.99F
FLORA*         CLOUDY    39  33  78 N12       30.03S WCI  32
FAIRFIELD*     CLOUDY    40  35  84 NW12      30.02S
HARRISBURG*    LGT RAIN  41  39  93 N13       30.03S
ROBINSON*      CLOUDY    40  35  80 N14       30.01S
CARMI*         CLOUDY   N/A N/A N/A N15       30.00S
$$

ABBREVIATIONS USED IN REMARKS
   TC - TEMPERATURE IN CELSIUS
  WCI - WIND CHILL INDEX
   HX - HEAT INDEX
  VSB - VISIBILITY
$$




USA.gov is the U.S. government's official web portal to all federal, state and local government web resources and services.